Location: Long Island Community Building
(39.9491°N, 99.5338°W)
Time: 08:27:18
(UTC+00:00)

STARLINK-24 - Pass Details

Date: 06 December 2019
Orbit: 528 x 530 km, 53.0° (Epoch: 18 January)

Event Time Altitude Azimuth Distance (km) Brightness Sun altitude
Exits shadow 12:20:00 30° 269° (W) 973 4.3 -15.9°
Maximum altitude 12:21:17 39° 227° (SW) 805 4.2 -15.6°
Drops below altitude 10° 12:25:03 10° 158° (SSE) 1,770 6.8 -15.0°
Sets 12:27:20 0° 150° (SSE) 2,656 7.9 -14.5°
